Time,TemperatureF,DewpointF,PressureIn,WindDirection,WindDirectionDegrees,WindSpeedMPH,WindSpeedGustMPH,Humidity,HourlyPrecipIn,Conditions,Clouds,dailyrainin,SoftwareType,DateUTC
2013-05-28 00:04:00,54.6,53.2,29.81,ESE,110,0.0,8.0,95,0.00,,,0.00,VWS V14.01,2013-05-28 05:04:00,
2013-05-28 00:09:00,54.5,53.1,29.81,South,186,6.0,8.0,95,0.00,,,0.00,VWS V14.01,2013-05-28 05:09:00,
2013-05-28 00:14:00,54.5,53.1,29.81,East,87,6.0,8.0,95,0.00,,,0.00,VWS V14.01,2013-05-28 05:14:00,
2013-05-28 00:19:00,54.4,53.0,29.80,SE,142,0.0,8.0,95,0.00,,,0.00,VWS V14.01,2013-05-28 05:19:00,
2013-05-28 00:24:00,54.3,52.9,29.80,ESE,121,2.0,8.0,95,0.00,,,0.00,VWS V14.01,2013-05-28 05:24:00,
2013-05-28 00:29:00,54.3,52.9,29.81,ESE,122,1.0,8.0,95,0.00,,,0.00,VWS V14.01,2013-05-28 05:29:00,
2013-05-28 00:34:00,54.2,52.8,29.81,ESE,116,1.0,3.0,95,0.00,,,0.00,VWS V14.01,2013-05-28 05:34:00,
2013-05-28 00:39:00,54.2,52.5,29.81,SE,137,1.0,5.0,94,0.00,,,0.00,VWS V14.01,2013-05-28 05:39:00,
2013-05-28 00:44:00,54.2,52.5,29.81,ESE,114,2.0,5.0,94,0.00,,,0.00,VWS V14.01,2013-05-28 05:44:00,
2013-05-28 00:49:00,54.2,52.5,29.81,SE,142,1.0,7.0,94,0.00,,,0.00,VWS V14.01,2013-05-28 05:49:00,
2013-05-28 00:55:00,54.2,52.5,29.81,SE,125,5.0,10.0,94,0.00,,,0.00,VWS V14.01,2013-05-28 05:55:00,
2013-05-28 01:00:00,54.1,52.4,29.80,SSE,147,1.0,10.0,94,0.00,,,0.00,VWS V14.01,2013-05-28 06:00:00,
2013-05-28 01:05:00,54.1,52.1,29.80,ESE,122,0.0,5.0,93,0.00,,,0.00,VWS V14.01,2013-05-28 06:05:00,
2013-05-28 01:10:00,54.0,52.0,29.79,ESE,122,1.0,7.0,93,0.00,,,0.00,VWS V14.01,2013-05-28 06:10:00,
2013-05-28 01:15:00,54.0,52.0,29.78,SE,127,1.0,7.0,93,0.00,,,0.00,VWS V14.01,2013-05-28 06:15:00,
2013-05-28 01:20:00,53.9,51.9,29.78,SE,141,4.0,7.0,93,0.00,,,0.00,VWS V14.01,2013-05-28 06:20:00,
2013-05-28 01:25:00,53.9,51.9,29.78,SE,133,5.0,8.0,93,0.00,,,0.00,VWS V14.01,2013-05-28 06:25:00,
2013-05-28 01:30:00,53.9,51.9,29.78,SE,131,2.0,8.0,93,0.00,,,0.00,VWS V14.01,2013-05-28 06:30:00,
2013-05-28 01:35:00,53.8,51.8,29.78,ESE,110,1.0,5.0,93,0.00,,,0.00,VWS V14.01,2013-05-28 06:35:00,
2013-05-28 01:40:00,53.8,51.8,29.78,ESE,113,1.0,8.0,93,0.00,,,0.00,VWS V14.01,2013-05-28 06:40:00,
2013-05-28 01:45:00,53.8,51.8,29.77,SSE,153,5.0,8.0,93,0.00,,,0.00,VWS V14.01,2013-05-28 06:45:00,
2013-05-28 01:51:00,53.8,51.8,29.77,ESE,104,2.0,8.0,93,0.00,,,0.00,VWS V14.01,2013-05-28 06:51:00,
2013-05-28 01:56:00,53.7,52.0,29.77,ENE,65,0.0,8.0,94,0.00,,,0.00,VWS V14.01,2013-05-28 06:56:00,
2013-05-28 02:01:00,53.8,52.1,29.76,SE,125,0.0,8.0,94,0.00,,,0.00,VWS V14.01,2013-05-28 07:01:00,
2013-05-28 02:06:00,53.7,52.0,29.76,SSE,158,0.0,2.0,94,0.00,,,0.00,VWS V14.01,2013-05-28 07:06:00,
2013-05-28 02:11:00,53.6,51.9,29.75,ESE,120,0.0,3.0,94,0.00,,,0.00,VWS V14.01,2013-05-28 07:11:00,
2013-05-28 02:16:00,53.6,51.9,29.75,East,80,0.0,3.0,94,0.00,,,0.00,VWS V14.01,2013-05-28 07:16:00,
2013-05-28 02:21:00,53.5,51.8,29.74,SSE,148,1.0,4.0,94,0.00,,,0.00,VWS V14.01,2013-05-28 07:21:00,
2013-05-28 02:26:00,53.4,51.7,29.74,SE,134,0.0,4.0,94,0.00,,,0.00,VWS V14.01,2013-05-28 07:26:00,
2013-05-28 02:31:00,53.4,51.7,29.75,SSE,158,0.0,4.0,94,0.00,,,0.00,VWS V14.01,2013-05-28 07:31:00,
2013-05-28 02:36:00,53.3,51.6,29.75,SE,135,0.0,3.0,94,0.00,,,0.00,VWS V14.01,2013-05-28 07:36:00,
2013-05-28 02:41:00,53.3,51.6,29.76,SSE,155,0.0,3.0,94,0.00,,,0.00,VWS V14.01,2013-05-28 07:41:00,
2013-05-28 02:47:00,53.3,51.6,29.77,ESE,106,0.0,4.0,94,0.00,,,0.00,VWS V14.01,2013-05-28 07:47:00,
2013-05-28 02:52:00,53.3,51.6,29.77,ESE,116,0.0,4.0,94,0.00,,,0.00,VWS V14.01,2013-05-28 07:52:00,
2013-05-28 02:57:00,53.3,51.6,29.77,SE,131,1.0,4.0,94,0.00,,,0.00,VWS V14.01,2013-05-28 07:57:00,
2013-05-28 03:02:00,53.3,51.6,29.76,ESE,115,1.0,6.0,94,0.00,,,0.00,VWS V14.01,2013-05-28 08:02:00,
2013-05-28 03:07:00,53.3,51.6,29.76,ESE,118,0.0,5.0,94,0.00,,,0.00,VWS V14.01,2013-05-28 08:07:00,
2013-05-28 03:12:00,53.3,51.6,29.76,East,79,0.0,5.0,94,0.00,,,0.00,VWS V14.01,2013-05-28 08:12:00,
2013-05-28 03:17:00,53.2,51.5,29.76,ESE,113,0.0,5.0,94,0.00,,,0.00,VWS V14.01,2013-05-28 08:17:00,
2013-05-28 03:22:00,53.2,51.5,29.76,East,82,0.0,5.0,94,0.00,,,0.00,VWS V14.01,2013-05-28 08:22:00,
2013-05-28 03:27:00,53.2,51.5,29.75,SE,139,1.0,5.0,94,0.00,,,0.00,VWS V14.01,2013-05-28 08:27:00,
2013-05-28 03:32:00,53.2,51.5,29.75,ESE,116,0.0,5.0,94,0.00,,,0.00,VWS V14.01,2013-05-28 08:32:00,
2013-05-28 03:37:00,53.2,51.5,29.75,ESE,116,0.0,2.0,94,0.00,,,0.00,VWS V14.01,2013-05-28 08:37:00,
2013-05-28 03:43:00,53.1,51.7,29.74,ESE,119,0.0,2.0,95,0.00,,,0.00,VWS V14.01,2013-05-28 08:43:00,
2013-05-28 03:48:00,53.1,51.7,29.73,East,92,0.0,2.0,95,0.00,,,0.00,VWS V14.01,2013-05-28 08:48:00,
2013-05-28 03:53:00,53.1,51.7,29.73,East,93,0.0,2.0,95,0.00,,,0.00,VWS V14.01,2013-05-28 08:53:00,
2013-05-28 03:58:00,53.0,51.6,29.73,SSE,152,0.0,2.0,95,0.00,,,0.00,VWS V14.01,2013-05-28 08:58:00,
2013-05-28 04:03:00,53.0,51.6,29.74,North,359,0.0,0.0,95,0.00,,,0.00,VWS V14.01,2013-05-28 09:03:00,
2013-05-28 04:08:00,52.9,51.5,29.74,ESE,108,0.0,3.0,95,0.00,,,0.00,VWS V14.01,2013-05-28 09:08:00,
2013-05-28 04:13:00,52.9,51.5,29.74,SE,145,0.0,5.0,95,0.00,,,0.00,VWS V14.01,2013-05-28 09:13:00,
2013-05-28 04:18:00,52.9,51.5,29.75,South,172,0.0,5.0,95,0.00,,,0.00,VWS V14.01,2013-05-28 09:18:00,
2013-05-28 04:23:00,52.8,51.4,29.75,South,172,0.0,5.0,95,0.00,,,0.00,VWS V14.01,2013-05-28 09:23:00,
2013-05-28 04:28:00,52.8,51.4,29.74,SE,131,0.0,5.0,95,0.00,,,0.00,VWS V14.01,2013-05-28 09:28:00,
2013-05-28 04:33:00,52.8,51.4,29.74,ENE,66,0.0,1.0,95,0.00,,,0.00,VWS V14.01,2013-05-28 09:33:00,
2013-05-28 04:39:00,52.8,51.4,29.74,SE,131,1.0,5.0,95,0.00,,,0.00,VWS V14.01,2013-05-28 09:39:00,
2013-05-28 04:44:00,52.7,51.3,29.74,ESE,102,0.0,5.0,95,0.00,,,0.00,VWS V14.01,2013-05-28 09:44:00,
2013-05-28 04:49:00,52.7,51.3,29.74,East,88,1.0,8.0,95,0.00,,,0.00,VWS V14.01,2013-05-28 09:49:00,
2013-05-28 04:54:00,52.7,51.3,29.74,SE,129,0.0,8.0,95,0.00,,,0.00,VWS V14.01,2013-05-28 09:54:00,
2013-05-28 04:59:00,52.7,51.3,29.74,SE,131,3.0,8.0,95,0.00,,,0.00,VWS V14.01,2013-05-28 09:59:00,
2013-05-28 05:04:00,52.6,51.2,29.74,SE,133,3.0,3.0,95,0.00,,,0.00,VWS V14.01,2013-05-28 10:04:00,
2013-05-28 05:09:00,52.6,51.2,29.74,ESE,110,0.0,4.0,95,0.00,,,0.00,VWS V14.01,2013-05-28 10:09:00,
2013-05-28 05:14:00,52.6,51.2,29.74,East,100,0.0,7.0,95,0.00,,,0.00,VWS V14.01,2013-05-28 10:14:00,
2013-05-28 05:19:00,52.6,51.2,29.74,SE,132,0.0,7.0,95,0.00,,,0.00,VWS V14.01,2013-05-28 10:19:00,
2013-05-28 05:24:00,52.6,51.2,29.74,ENE,67,1.0,7.0,95,0.00,,,0.00,VWS V14.01,2013-05-28 10:24:00,
2013-05-28 05:29:00,52.6,51.2,29.74,ESE,122,0.0,7.0,95,0.00,,,0.00,VWS V14.01,2013-05-28 10:29:00,
2013-05-28 05:35:00,52.6,51.2,29.74,East,83,0.0,1.0,95,0.00,,,0.00,VWS V14.01,2013-05-28 10:35:00,
2013-05-28 05:40:00,52.6,51.2,29.74,SE,132,1.0,3.0,95,0.00,,,0.00,VWS V14.01,2013-05-28 10:40:00,
2013-05-28 05:45:00,52.5,51.1,29.74,East,96,0.0,3.0,95,0.00,,,0.00,VWS V14.01,2013-05-28 10:45:00,
2013-05-28 05:50:00,52.5,51.1,29.74,East,96,0.0,3.0,95,0.00,,,0.00,VWS V14.01,2013-05-28 10:50:00,
2013-05-28 05:55:00,52.5,51.1,29.74,East,95,0.0,3.0,95,0.00,,,0.00,VWS V14.01,2013-05-28 10:55:00,
2013-05-28 06:00:00,52.5,51.1,29.74,SE,135,2.0,3.0,95,0.00,,,0.00,VWS V14.01,2013-05-28 11:00:00,
2013-05-28 06:05:00,52.5,51.1,29.73,ENE,72,0.0,1.0,95,0.00,,,0.00,VWS V14.01,2013-05-28 11:05:00,
2013-05-28 06:10:00,52.4,51.0,29.73,North,359,0.0,1.0,95,0.00,,,0.00,VWS V14.01,2013-05-28 11:10:00,
2013-05-28 06:15:00,52.4,51.0,29.73,ESE,117,0.0,1.0,95,0.00,,,0.00,VWS V14.01,2013-05-28 11:15:00,
2013-05-28 06:20:00,52.4,51.3,29.73,WNW,303,2.0,3.0,96,0.00,,,0.00,VWS V14.01,2013-05-28 11:20:00,
2013-05-28 06:25:00,52.3,51.2,29.72,NW,310,0.0,3.0,96,0.00,,,0.00,VWS V14.01,2013-05-28 11:25:00,
2013-05-28 06:31:00,52.3,51.2,29.72,NNE,33,0.0,3.0,96,0.00,,,0.00,VWS V14.01,2013-05-28 11:31:00,
2013-05-28 06:36:00,52.3,51.2,29.72,SE,140,0.0,1.0,96,0.00,,,0.00,VWS V14.01,2013-05-28 11:36:00,
2013-05-28 06:41:00,52.3,51.2,29.72,SE,124,0.0,2.0,96,0.00,,,0.00,VWS V14.01,2013-05-28 11:41:00,
2013-05-28 06:46:00,52.3,51.2,29.72,ENE,64,0.0,3.0,96,0.00,,,0.00,VWS V14.01,2013-05-28 11:46:00,
2013-05-28 06:51:00,52.3,51.2,29.71,ESE,113,0.0,3.0,96,0.00,,,0.00,VWS V14.01,2013-05-28 11:51:00,
2013-05-28 06:56:00,52.3,51.2,29.72,NNE,27,0.0,3.0,96,0.00,,,0.00,VWS V14.01,2013-05-28 11:56:00,
2013-05-28 07:01:00,52.3,51.2,29.72,SE,133,0.0,3.0,96,0.00,,,0.00,VWS V14.01,2013-05-28 12:01:00,
2013-05-28 07:06:00,52.3,51.2,29.71,ESE,110,1.0,1.0,96,0.00,,,0.00,VWS V14.01,2013-05-28 12:06:00,
2013-05-28 07:11:00,52.3,51.2,29.72,NE,37,0.0,2.0,96,0.00,,,0.00,VWS V14.01,2013-05-28 12:11:00,
2013-05-28 07:16:00,52.3,51.2,29.72,ESE,114,0.0,4.0,96,0.00,,,0.00,VWS V14.01,2013-05-28 12:16:00,
2013-05-28 07:21:00,52.4,51.3,29.72,ENE,68,0.0,5.0,96,0.00,,,0.00,VWS V14.01,2013-05-28 12:21:00,
2013-05-28 07:27:00,52.4,51.3,29.72,SE,136,1.0,5.0,96,0.00,,,0.00,VWS V14.01,2013-05-28 12:27:00,
2013-05-28 07:32:00,52.4,51.3,29.71,ESE,104,1.0,5.0,96,0.00,,,0.00,VWS V14.01,2013-05-28 12:32:00,
2013-05-28 07:37:00,52.4,51.3,29.71,East,84,0.0,6.0,96,0.00,,,0.00,VWS V14.01,2013-05-28 12:37:00,
2013-05-28 07:42:00,52.4,51.3,29.71,East,85,0.0,6.0,96,0.00,,,0.00,VWS V14.01,2013-05-28 12:42:00,
2013-05-28 07:47:00,52.4,51.3,29.71,ESE,118,0.0,6.0,96,0.00,,,0.00,VWS V14.01,2013-05-28 12:47:00,
2013-05-28 07:52:00,52.4,51.3,29.71,SSE,164,0.0,6.0,96,0.00,,,0.00,VWS V14.01,2013-05-28 12:52:00,
2013-05-28 07:57:00,52.4,51.3,29.71,ENE,59,0.0,6.0,96,0.00,,,0.00,VWS V14.01,2013-05-28 12:57:00,
2013-05-28 08:02:00,52.4,51.3,29.70,East,93,0.0,6.0,96,0.00,,,0.00,VWS V14.01,2013-05-28 13:02:00,
2013-05-28 08:07:00,52.5,51.4,29.70,East,95,1.0,1.0,96,0.00,,,0.00,VWS V14.01,2013-05-28 13:07:00,
2013-05-28 08:12:00,52.5,51.4,29.70,SE,129,0.0,2.0,96,0.01,,,0.01,VWS V14.01,2013-05-28 13:12:00,
2013-05-28 08:17:00,52.5,51.4,29.70,ESE,118,0.0,2.0,96,0.01,,,0.01,VWS V14.01,2013-05-28 13:17:00,
2013-05-28 08:23:00,52.5,51.4,29.70,East,97,0.0,4.0,96,0.01,,,0.01,VWS V14.01,2013-05-28 13:23:00,
2013-05-28 08:28:00,52.6,51.8,29.70,SE,131,0.0,4.0,97,0.01,,,0.01,VWS V14.01,2013-05-28 13:28:00,
2013-05-28 08:33:00,52.6,51.8,29.70,ESE,105,1.0,1.0,97,0.01,,,0.01,VWS V14.01,2013-05-28 13:33:00,
2013-05-28 08:38:00,52.7,51.6,29.70,SSE,154,1.0,3.0,96,0.01,,,0.01,VWS V14.01,2013-05-28 13:38:00,
2013-05-28 08:43:00,52.8,52.0,29.71,SSE,154,0.0,3.0,97,0.01,,,0.01,VWS V14.01,2013-05-28 13:43:00,
2013-05-28 08:48:00,52.8,51.7,29.71,SSE,154,0.0,3.0,96,0.01,,,0.01,VWS V14.01,2013-05-28 13:48:00,
2013-05-28 08:53:00,52.9,52.1,29.71,ESE,104,0.0,3.0,97,0.01,,,0.01,VWS V14.01,2013-05-28 13:53:00,
2013-05-28 08:58:00,53.0,52.2,29.71,SSE,147,0.0,3.0,97,0.01,,,0.01,VWS V14.01,2013-05-28 13:58:00,
2013-05-28 09:03:00,53.0,52.2,29.72,SE,131,0.0,0.0,97,0.01,,,0.01,VWS V14.01,2013-05-28 14:03:00,
2013-05-28 09:08:00,53.0,52.2,29.72,SE,139,3.0,3.0,97,0.02,,,0.02,VWS V14.01,2013-05-28 14:08:00,
2013-05-28 09:13:00,53.1,52.3,29.72,SE,138,0.0,3.0,97,0.02,,,0.02,VWS V14.01,2013-05-28 14:13:00,
2013-05-28 09:18:00,53.1,52.3,29.72,South,174,0.0,3.0,97,0.02,,,0.02,VWS V14.01,2013-05-28 14:18:00,
2013-05-28 09:24:00,53.2,52.4,29.72,ESE,122,0.0,3.0,97,0.02,,,0.02,VWS V14.01,2013-05-28 14:24:00,
2013-05-28 09:29:00,53.2,52.4,29.72,ESE,122,0.0,3.0,97,0.02,,,0.02,VWS V14.01,2013-05-28 14:29:00,
2013-05-28 09:34:00,53.3,52.5,29.72,ESE,122,0.0,0.0,97,0.01,,,0.02,VWS V14.01,2013-05-28 14:34:00,
2013-05-28 09:39:00,53.4,52.6,29.72,SSE,154,0.0,1.0,97,0.02,,,0.03,VWS V14.01,2013-05-28 14:39:00,
2013-05-28 09:44:00,53.5,52.7,29.72,ENE,62,0.0,3.0,97,0.02,,,0.03,VWS V14.01,2013-05-28 14:44:00,
2013-05-28 09:49:00,53.6,52.8,29.72,ESE,118,0.0,3.0,97,0.02,,,0.03,VWS V14.01,2013-05-28 14:49:00,
2013-05-28 09:54:00,53.6,52.8,29.71,ESE,104,1.0,3.0,97,0.03,,,0.04,VWS V14.01,2013-05-28 14:54:00,
2013-05-28 09:59:00,53.8,53.0,29.71,SSE,168,0.0,3.0,97,0.03,,,0.04,VWS V14.01,2013-05-28 14:59:00,
2013-05-28 10:04:00,54.0,53.2,29.70,ESE,105,0.0,5.0,97,0.03,,,0.04,VWS V14.01,2013-05-28 15:04:00,
2013-05-28 10:09:00,54.4,53.6,29.70,ESE,119,2.0,6.0,97,0.03,,,0.04,VWS V14.01,2013-05-28 15:09:00,
2013-05-28 10:14:00,54.8,54.0,29.70,SE,145,1.0,6.0,97,0.03,,,0.04,VWS V14.01,2013-05-28 15:14:00,
2013-05-28 10:19:00,55.3,54.8,29.70,SE,133,4.0,6.0,98,0.03,,,0.04,VWS V14.01,2013-05-28 15:19:00,
2013-05-28 10:25:00,55.2,54.1,29.70,East,96,0.0,6.0,96,0.03,,,0.04,VWS V14.01,2013-05-28 15:25:00,
2013-05-28 10:30:00,55.1,54.0,29.70,SE,129,3.0,6.0,96,0.03,,,0.04,VWS V14.01,2013-05-28 15:30:00,
2013-05-28 10:35:00,55.0,53.9,29.70,SE,139,1.0,4.0,96,0.02,,,0.04,VWS V14.01,2013-05-28 15:35:00,
2013-05-28 10:40:00,55.0,53.9,29.70,SE,141,1.0,5.0,96,0.02,,,0.04,VWS V14.01,2013-05-28 15:40:00,
2013-05-28 10:45:00,55.1,54.0,29.70,ESE,115,0.0,5.0,96,0.02,,,0.04,VWS V14.01,2013-05-28 15:45:00,
2013-05-28 10:50:00,55.1,54.0,29.70,SE,143,0.0,5.0,96,0.02,,,0.04,VWS V14.01,2013-05-28 15:50:00,
2013-05-28 10:55:00,55.1,53.7,29.70,ESE,116,4.0,6.0,95,0.02,,,0.04,VWS V14.01,2013-05-28 15:55:00,
2013-05-28 11:00:00,55.1,53.7,29.70,SE,137,0.0,6.0,95,0.02,,,0.04,VWS V14.01,2013-05-28 16:00:00,
2013-05-28 11:05:00,55.0,53.6,29.70,East,93,1.0,4.0,95,0.00,,,0.04,VWS V14.01,2013-05-28 16:05:00,
2013-05-28 11:10:00,55.0,53.6,29.71,East,100,6.0,6.0,95,0.00,,,0.04,VWS V14.01,2013-05-28 16:10:00,
2013-05-28 11:16:00,55.0,53.6,29.71,SSW,192,4.0,7.0,95,0.00,,,0.04,VWS V14.01,2013-05-28 16:16:00,
2013-05-28 11:21:00,54.9,53.5,29.71,ESE,117,0.0,8.0,95,0.00,,,0.04,VWS V14.01,2013-05-28 16:21:00,
2013-05-28 11:26:00,55.0,53.6,29.71,ESE,106,1.0,8.0,95,0.00,,,0.04,VWS V14.01,2013-05-28 16:26:00,
2013-05-28 11:31:00,55.0,53.3,29.71,ESE,116,2.0,8.0,94,0.00,,,0.04,VWS V14.01,2013-05-28 16:31:00,
2013-05-28 11:36:00,54.9,53.2,29.71,ESE,110,2.0,5.0,94,0.00,,,0.04,VWS V14.01,2013-05-28 16:36:00,
2013-05-28 11:41:00,54.9,53.5,29.71,SE,138,0.0,5.0,95,0.00,,,0.04,VWS V14.01,2013-05-28 16:41:00,
2013-05-28 11:46:00,55.0,53.6,29.71,ESE,118,0.0,5.0,95,0.00,,,0.04,VWS V14.01,2013-05-28 16:46:00,
2013-05-28 11:51:00,55.0,53.6,29.71,SE,140,1.0,7.0,95,0.00,,,0.04,VWS V14.01,2013-05-28 16:51:00,
2013-05-28 11:56:00,55.1,53.7,29.71,East,88,5.0,7.0,95,0.00,,,0.04,VWS V14.01,2013-05-28 16:56:00,
2013-05-28 12:01:00,55.1,53.7,29.71,SE,132,0.0,7.0,95,0.00,,,0.04,VWS V14.01,2013-05-28 17:01:00,
2013-05-28 12:07:00,55.2,54.1,29.72,ESE,117,0.0,2.0,96,0.00,,,0.04,VWS V14.01,2013-05-28 17:07:00,
2013-05-28 12:12:00,55.2,53.8,29.72,SE,134,0.0,2.0,95,0.00,,,0.04,VWS V14.01,2013-05-28 17:12:00,
2013-05-28 12:17:00,55.2,53.8,29.72,SE,129,0.0,2.0,95,0.00,,,0.04,VWS V14.01,2013-05-28 17:17:00,
2013-05-28 12:22:00,55.2,54.1,29.73,SE,130,0.0,2.0,96,0.00,,,0.04,VWS V14.01,2013-05-28 17:22:00,
2013-05-28 12:27:00,55.2,54.1,29.73,East,89,0.0,2.0,96,0.00,,,0.04,VWS V14.01,2013-05-28 17:27:00,
2013-05-28 12:32:00,55.2,54.1,29.73,ESE,123,0.0,3.0,96,0.00,,,0.04,VWS V14.01,2013-05-28 17:32:00,
2013-05-28 12:37:00,55.3,54.2,29.73,SSE,164,0.0,1.0,96,0.01,,,0.05,VWS V14.01,2013-05-28 17:37:00,
2013-05-28 12:42:00,55.2,54.1,29.73,SE,126,0.0,1.0,96,0.01,,,0.05,VWS V14.01,2013-05-28 17:42:00,
2013-05-28 12:47:00,55.2,54.1,29.73,SE,132,1.0,3.0,96,0.01,,,0.05,VWS V14.01,2013-05-28 17:47:00,
2013-05-28 12:52:00,55.3,54.2,29.73,SE,128,0.0,3.0,96,0.01,,,0.05,VWS V14.01,2013-05-28 17:52:00,
2013-05-28 12:57:00,55.4,54.3,29.72,SE,129,0.0,3.0,96,0.01,,,0.05,VWS V14.01,2013-05-28 17:57:00,
2013-05-28 13:03:00,55.5,54.4,29.72,ESE,119,2.0,3.0,96,0.01,,,0.05,VWS V14.01,2013-05-28 18:03:00,
2013-05-28 13:08:00,55.6,54.5,29.72,ESE,120,0.0,2.0,96,0.01,,,0.05,VWS V14.01,2013-05-28 18:08:00,
2013-05-28 13:13:00,55.6,54.2,29.72,ESE,114,0.0,2.0,95,0.01,,,0.05,VWS V14.01,2013-05-28 18:13:00,
2013-05-28 13:18:00,55.7,54.6,29.72,ESE,115,0.0,2.0,96,0.01,,,0.05,VWS V14.01,2013-05-28 18:18:00,
2013-05-28 13:23:00,55.7,54.3,29.72,ESE,114,0.0,2.0,95,0.01,,,0.05,VWS V14.01,2013-05-28 18:23:00,
2013-05-28 13:28:00,55.8,54.4,29.72,ESE,115,0.0,2.0,95,0.01,,,0.05,VWS V14.01,2013-05-28 18:28:00,
2013-05-28 13:33:00,55.9,54.8,29.72,ESE,115,0.0,0.0,96,0.01,,,0.05,VWS V14.01,2013-05-28 18:33:00,
2013-05-28 13:38:00,55.9,54.5,29.72,SE,125,0.0,0.0,95,0.01,,,0.05,VWS V14.01,2013-05-28 18:38:00,
2013-05-28 13:43:00,55.9,54.5,29.72,SE,126,0.0,0.0,95,0.01,,,0.05,VWS V14.01,2013-05-28 18:43:00,
2013-05-28 13:48:00,55.9,54.5,29.72,SE,126,0.0,0.0,95,0.01,,,0.05,VWS V14.01,2013-05-28 18:48:00,
2013-05-28 13:54:00,56.0,54.6,29.72,SE,125,0.0,0.0,95,0.01,,,0.05,VWS V14.01,2013-05-28 18:54:00,
2013-05-28 13:59:00,56.0,54.6,29.72,ESE,122,0.0,1.0,95,0.01,,,0.05,VWS V14.01,2013-05-28 18:59:00,
2013-05-28 14:04:00,56.2,54.8,29.72,ESE,122,0.0,0.0,95,0.00,,,0.05,VWS V14.01,2013-05-28 19:04:00,
2013-05-28 14:09:00,56.3,54.9,29.72,ESE,123,0.0,1.0,95,0.00,,,0.05,VWS V14.01,2013-05-28 19:09:00,
2013-05-28 14:14:00,56.5,55.1,29.71,SE,125,0.0,1.0,95,0.00,,,0.05,VWS V14.01,2013-05-28 19:14:00,
2013-05-28 14:22:00,57.0,55.6,29.71,SE,143,0.0,2.0,95,0.00,,,0.05,VWS V14.01,2013-05-28 19:22:00,
2013-05-28 14:27:00,57.1,55.7,29.71,South,171,0.0,3.0,95,0.00,,,0.05,VWS V14.01,2013-05-28 19:27:00,
2013-05-28 14:32:00,57.2,55.5,29.71,NNW,336,0.0,3.0,94,0.00,,,0.05,VWS V14.01,2013-05-28 19:32:00,
2013-05-28 14:37:00,57.3,55.6,29.72,NNW,337,0.0,0.0,94,0.00,,,0.05,VWS V14.01,2013-05-28 19:37:00,
2013-05-28 14:42:00,57.3,55.3,29.72,SSE,154,0.0,5.0,93,0.00,,,0.05,VWS V14.01,2013-05-28 19:42:00,
2013-05-28 14:47:00,57.4,55.7,29.73,SSE,154,0.0,5.0,94,0.00,,,0.05,VWS V14.01,2013-05-28 19:47:00,
2013-05-28 14:53:00,57.4,55.4,29.73,SSE,154,0.0,5.0,93,0.00,,,0.05,VWS V14.01,2013-05-28 19:53:00,
2013-05-28 14:58:00,57.5,55.5,29.73,SSE,157,0.0,5.0,93,0.00,,,0.05,VWS V14.01,2013-05-28 19:58:00,
2013-05-28 15:03:00,57.5,55.2,29.73,SSE,157,0.0,5.0,92,0.00,,,0.05,VWS V14.01,2013-05-28 20:03:00,
2013-05-28 15:08:00,57.5,55.5,29.73,SSE,157,0.0,0.0,93,0.00,,,0.05,VWS V14.01,2013-05-28 20:08:00,
2013-05-28 15:13:00,57.5,55.2,29.73,SSE,157,0.0,0.0,92,0.00,,,0.05,VWS V14.01,2013-05-28 20:13:00,
2013-05-28 15:18:00,57.4,55.4,29.73,SSE,157,0.0,0.0,93,0.00,,,0.05,VWS V14.01,2013-05-28 20:18:00,
2013-05-28 15:23:00,57.4,55.4,29.73,SSE,157,0.0,0.0,93,0.00,,,0.05,VWS V14.01,2013-05-28 20:23:00,
2013-05-28 15:28:00,57.3,55.3,29.73,SSE,156,0.0,0.0,93,0.00,,,0.05,VWS V14.01,2013-05-28 20:28:00,
2013-05-28 15:33:00,57.5,55.8,29.73,South,185,0.0,0.0,94,0.00,,,0.05,VWS V14.01,2013-05-28 20:33:00,
2013-05-28 15:38:00,57.6,55.9,29.73,WSW,242,1.0,2.0,94,0.00,,,0.05,VWS V14.01,2013-05-28 20:38:00,
2013-05-28 15:43:00,57.7,55.7,29.73,WSW,242,0.0,2.0,93,0.00,,,0.05,VWS V14.01,2013-05-28 20:43:00,
2013-05-28 15:49:00,57.8,55.8,29.74,WSW,247,0.0,2.0,93,0.00,,,0.05,VWS V14.01,2013-05-28 20:49:00,
2013-05-28 15:54:00,57.8,55.8,29.74,West,269,0.0,2.0,93,0.00,,,0.05,VWS V14.01,2013-05-28 20:54:00,
2013-05-28 15:59:00,57.9,55.9,29.74,West,259,0.0,2.0,93,0.00,,,0.05,VWS V14.01,2013-05-28 20:59:00,
2013-05-28 16:04:00,58.0,56.0,29.74,West,259,0.0,0.0,93,0.00,,,0.05,VWS V14.01,2013-05-28 21:04:00,
2013-05-28 16:09:00,58.0,55.7,29.74,WSW,257,0.0,2.0,92,0.00,,,0.05,VWS V14.01,2013-05-28 21:09:00,
2013-05-28 16:14:00,58.0,56.0,29.74,SW,224,0.0,2.0,93,0.00,,,0.05,VWS V14.01,2013-05-28 21:14:00,
2013-05-28 16:19:00,58.1,55.8,29.73,SW,224,0.0,2.0,92,0.00,,,0.05,VWS V14.01,2013-05-28 21:19:00,
2013-05-28 16:24:00,58.1,55.8,29.73,SW,224,0.0,2.0,92,0.00,,,0.05,VWS V14.01,2013-05-28 21:24:00,
2013-05-28 16:29:00,58.2,55.9,29.73,WSW,246,0.0,2.0,92,0.00,,,0.05,VWS V14.01,2013-05-28 21:29:00,
2013-05-28 16:34:00,58.2,55.9,29.73,WSW,248,0.0,0.0,92,0.00,,,0.05,VWS V14.01,2013-05-28 21:34:00,
2013-05-28 16:40:00,58.2,55.9,29.73,WSW,246,0.0,0.0,92,0.00,,,0.05,VWS V14.01,2013-05-28 21:40:00,
2013-05-28 16:45:00,58.2,55.9,29.73,SW,233,0.0,0.0,92,0.00,,,0.05,VWS V14.01,2013-05-28 21:45:00,
2013-05-28 16:50:00,58.0,55.7,29.73,SSW,202,0.0,0.0,92,0.00,,,0.05,VWS V14.01,2013-05-28 21:50:00,
2013-05-28 16:55:00,58.0,55.4,29.73,SSW,202,0.0,0.0,91,0.00,,,0.05,VWS V14.01,2013-05-28 21:55:00,
2013-05-28 17:00:00,57.9,55.6,29.73,SSW,202,0.0,0.0,92,0.00,,,0.05,VWS V14.01,2013-05-28 22:00:00,
2013-05-28 17:05:00,57.9,55.6,29.73,SE,141,0.0,0.0,92,0.00,,,0.05,VWS V14.01,2013-05-28 22:05:00,
2013-05-28 17:10:00,57.9,55.9,29.73,SE,141,0.0,0.0,93,0.00,,,0.05,VWS V14.01,2013-05-28 22:10:00,
2013-05-28 17:15:00,58.1,55.8,29.73,SE,141,0.0,0.0,92,0.00,,,0.05,VWS V14.01,2013-05-28 22:15:00,
2013-05-28 17:20:00,58.2,55.9,29.73,SE,140,0.0,0.0,92,0.00,,,0.05,VWS V14.01,2013-05-28 22:20:00,
2013-05-28 17:25:00,58.3,56.0,29.73,SE,141,0.0,0.0,92,0.00,,,0.05,VWS V14.01,2013-05-28 22:25:00,
2013-05-28 17:30:00,58.4,56.1,29.73,SE,141,0.0,0.0,92,0.00,,,0.05,VWS V14.01,2013-05-28 22:30:00,
2013-05-28 17:36:00,58.4,56.1,29.73,SE,141,0.0,0.0,92,0.00,,,0.05,VWS V14.01,2013-05-28 22:36:00,
2013-05-28 17:41:00,58.5,56.2,29.73,SE,140,0.0,0.0,92,0.00,,,0.05,VWS V14.01,2013-05-28 22:41:00,
2013-05-28 17:46:00,58.5,56.2,29.73,SE,141,0.0,0.0,92,0.00,,,0.05,VWS V14.01,2013-05-28 22:46:00,
2013-05-28 17:51:00,58.6,56.0,29.72,SE,140,0.0,0.0,91,0.00,,,0.05,VWS V14.01,2013-05-28 22:51:00,
2013-05-28 17:56:00,58.6,56.0,29.72,SE,141,0.0,0.0,91,0.00,,,0.05,VWS V14.01,2013-05-28 22:56:00,
2013-05-28 18:01:00,58.5,55.6,29.72,SE,141,0.0,0.0,90,0.00,,,0.05,VWS V14.01,2013-05-28 23:01:00,
2013-05-28 18:06:00,58.6,56.0,29.72,SE,141,0.0,0.0,91,0.00,,,0.05,VWS V14.01,2013-05-28 23:06:00,
2013-05-28 18:11:00,58.6,56.0,29.72,SE,140,0.0,0.0,91,0.00,,,0.05,VWS V14.01,2013-05-28 23:11:00,
2013-05-28 18:16:00,58.7,56.1,29.72,SE,141,0.0,0.0,91,0.00,,,0.05,VWS V14.01,2013-05-28 23:16:00,
2013-05-28 18:21:00,58.7,56.4,29.72,SE,141,0.0,0.0,92,0.00,,,0.05,VWS V14.01,2013-05-28 23:21:00,
2013-05-28 18:27:00,58.8,56.5,29.72,SE,141,0.0,0.0,92,0.00,,,0.05,VWS V14.01,2013-05-28 23:27:00,
2013-05-28 18:32:00,58.9,56.0,29.72,SE,139,0.0,0.0,90,0.00,,,0.05,VWS V14.01,2013-05-28 23:32:00,
2013-05-28 18:37:00,59.1,56.5,29.72,SE,139,0.0,0.0,91,0.00,,,0.05,VWS V14.01,2013-05-28 23:37:00,
2013-05-28 18:42:00,59.2,56.3,29.72,SE,139,0.0,0.0,90,0.00,,,0.05,VWS V14.01,2013-05-28 23:42:00,
2013-05-28 18:47:00,59.3,56.4,29.72,SE,139,0.0,0.0,90,0.00,,,0.05,VWS V14.01,2013-05-28 23:47:00,
2013-05-28 18:52:00,59.4,56.8,29.73,SE,139,0.0,0.0,91,0.00,,,0.05,VWS V14.01,2013-05-28 23:52:00,
2013-05-28 18:57:00,59.5,56.6,29.73,SE,139,0.0,0.0,90,0.00,,,0.05,VWS V14.01,2013-05-28 23:57:00,
2013-05-28 19:02:00,59.5,56.3,29.73,SE,139,0.0,0.0,89,0.00,,,0.05,VWS V14.01,2013-05-29 00:02:00,
2013-05-28 19:07:00,59.3,56.4,29.73,SE,139,0.0,0.0,90,0.00,,,0.05,VWS V14.01,2013-05-29 00:07:00,
2013-05-28 19:12:00,59.2,56.3,29.74,SE,139,0.0,0.0,90,0.00,,,0.05,VWS V14.01,2013-05-29 00:12:00,
2013-05-28 19:17:00,59.0,56.1,29.74,SE,141,0.0,0.0,90,0.00,,,0.05,VWS V14.01,2013-05-29 00:17:00,
2013-05-28 19:23:00,58.9,56.0,29.74,SE,141,0.0,0.0,90,0.00,,,0.05,VWS V14.01,2013-05-29 00:23:00,
2013-05-28 19:28:00,58.8,55.9,29.74,SSE,157,0.0,1.0,90,0.00,,,0.05,VWS V14.01,2013-05-29 00:28:00,
2013-05-28 19:33:00,58.7,56.1,29.74,SSE,157,0.0,0.0,91,0.00,,,0.05,VWS V14.01,2013-05-29 00:33:00,
2013-05-28 19:38:00,58.7,56.4,29.74,SSE,157,0.0,0.0,92,0.00,,,0.05,VWS V14.01,2013-05-29 00:38:00,
2013-05-28 19:43:00,58.6,56.3,29.73,SSE,157,0.0,0.0,92,0.00,,,0.05,VWS V14.01,2013-05-29 00:43:00,
2013-05-28 19:48:00,58.5,56.2,29.73,SSE,157,0.0,0.0,92,0.00,,,0.05,VWS V14.01,2013-05-29 00:48:00,
2013-05-28 19:53:00,58.4,56.1,29.74,SSE,158,0.0,0.0,92,0.00,,,0.05,VWS V14.01,2013-05-29 00:53:00,
2013-05-28 19:58:00,58.4,56.1,29.73,SSE,157,0.0,0.0,92,0.00,,,0.05,VWS V14.01,2013-05-29 00:58:00,
2013-05-28 20:03:00,58.3,56.3,29.73,SSE,157,0.0,0.0,93,0.00,,,0.05,VWS V14.01,2013-05-29 01:03:00,
2013-05-28 20:08:00,58.3,56.3,29.73,SSE,158,0.0,0.0,93,0.00,,,0.05,VWS V14.01,2013-05-29 01:08:00,
2013-05-28 20:13:00,58.2,56.2,29.73,SSE,157,0.0,0.0,93,0.00,,,0.05,VWS V14.01,2013-05-29 01:13:00,
2013-05-28 20:19:00,58.1,56.1,29.73,SSE,157,0.0,0.0,93,0.00,,,0.05,VWS V14.01,2013-05-29 01:19:00,
2013-05-28 20:24:00,58.1,56.1,29.73,SSE,157,0.0,0.0,93,0.00,,,0.05,VWS V14.01,2013-05-29 01:24:00,
2013-05-28 20:29:00,58.0,56.0,29.73,SSE,158,0.0,0.0,93,0.00,,,0.05,VWS V14.01,2013-05-29 01:29:00,
2013-05-28 20:34:00,58.0,56.0,29.72,SSE,158,0.0,0.0,93,0.00,,,0.05,VWS V14.01,2013-05-29 01:34:00,
2013-05-28 20:39:00,57.9,55.9,29.72,SSE,157,0.0,0.0,93,0.00,,,0.05,VWS V14.01,2013-05-29 01:39:00,
2013-05-28 20:44:00,57.8,55.8,29.72,SSE,158,0.0,0.0,93,0.00,,,0.05,VWS V14.01,2013-05-29 01:44:00,
2013-05-28 20:49:00,57.7,55.7,29.71,SSE,158,0.0,0.0,93,0.00,,,0.05,VWS V14.01,2013-05-29 01:49:00,
2013-05-28 20:54:00,57.6,55.9,29.71,SSE,158,0.0,0.0,94,0.00,,,0.05,VWS V14.01,2013-05-29 01:54:00,
2013-05-28 20:59:00,57.6,55.9,29.71,SSE,157,0.0,0.0,94,0.00,,,0.05,VWS V14.01,2013-05-29 01:59:00,
2013-05-28 21:04:00,57.6,55.9,29.71,SSE,158,0.0,0.0,94,0.00,,,0.05,VWS V14.01,2013-05-29 02:04:00,
2013-05-28 21:09:00,57.5,55.8,29.71,SSE,157,0.0,0.0,94,0.00,,,0.05,VWS V14.01,2013-05-29 02:09:00,
2013-05-28 21:15:00,57.5,55.8,29.70,SSE,157,0.0,0.0,94,0.00,,,0.05,VWS V14.01,2013-05-29 02:15:00,
2013-05-28 21:20:00,57.4,55.7,29.71,SSE,158,0.0,0.0,94,0.00,,,0.05,VWS V14.01,2013-05-29 02:20:00,
2013-05-28 21:25:00,57.4,55.7,29.71,SSE,157,0.0,0.0,94,0.00,,,0.05,VWS V14.01,2013-05-29 02:25:00,
2013-05-28 21:30:00,57.4,55.7,29.71,SSE,158,0.0,0.0,94,0.00,,,0.05,VWS V14.01,2013-05-29 02:30:00,
2013-05-28 21:35:00,57.3,55.6,29.72,SSE,157,0.0,0.0,94,0.00,,,0.05,VWS V14.01,2013-05-29 02:35:00,
2013-05-28 21:40:00,57.3,55.6,29.72,SSE,157,0.0,0.0,94,0.00,,,0.05,VWS V14.01,2013-05-29 02:40:00,
2013-05-28 21:45:00,57.3,55.9,29.72,SSE,157,0.0,0.0,95,0.00,,,0.05,VWS V14.01,2013-05-29 02:45:00,
2013-05-28 21:50:00,57.3,55.9,29.72,SSE,157,0.0,0.0,95,0.00,,,0.05,VWS V14.01,2013-05-29 02:50:00,
2013-05-28 21:55:00,57.3,55.9,29.73,SSE,157,0.0,0.0,95,0.00,,,0.05,VWS V14.01,2013-05-29 02:55:00,
2013-05-28 22:00:00,57.3,55.9,29.73,SSE,157,0.0,0.0,95,0.00,,,0.05,VWS V14.01,2013-05-29 03:00:00,
2013-05-28 22:05:00,57.2,55.8,29.73,SSE,157,0.0,0.0,95,0.00,,,0.05,VWS V14.01,2013-05-29 03:05:00,
2013-05-28 22:11:00,57.2,55.8,29.74,SSE,158,0.0,0.0,95,0.00,,,0.05,VWS V14.01,2013-05-29 03:11:00,
2013-05-28 22:16:00,57.1,55.7,29.74,SSE,157,0.0,0.0,95,0.00,,,0.05,VWS V14.01,2013-05-29 03:16:00,
2013-05-28 22:21:00,57.1,55.7,29.74,SSE,157,0.0,0.0,95,0.00,,,0.05,VWS V14.01,2013-05-29 03:21:00,
2013-05-28 22:26:00,57.1,55.7,29.74,SSE,157,0.0,0.0,95,0.00,,,0.05,VWS V14.01,2013-05-29 03:26:00,
2013-05-28 22:31:00,57.1,55.7,29.75,SSW,197,0.0,0.0,95,0.00,,,0.05,VWS V14.01,2013-05-29 03:31:00,
2013-05-28 22:36:00,57.0,55.3,29.76,SSW,197,0.0,0.0,94,0.00,,,0.05,VWS V14.01,2013-05-29 03:36:00,
2013-05-28 22:41:00,57.0,55.3,29.76,SSW,197,0.0,0.0,94,0.00,,,0.05,VWS V14.01,2013-05-29 03:41:00,
2013-05-28 22:46:00,57.0,55.6,29.76,SSW,197,0.0,0.0,95,0.00,,,0.05,VWS V14.01,2013-05-29 03:46:00,
2013-05-28 22:51:00,57.0,55.3,29.76,SSW,197,0.0,0.0,94,0.00,,,0.05,VWS V14.01,2013-05-29 03:51:00,
2013-05-28 22:56:00,57.0,55.3,29.76,SSW,197,0.0,0.0,94,0.00,,,0.05,VWS V14.01,2013-05-29 03:56:00,
2013-05-28 23:01:00,56.9,55.2,29.76,SSW,197,0.0,0.0,94,0.00,,,0.05,VWS V14.01,2013-05-29 04:01:00,
2013-05-28 23:04:00,57.0,55.6,29.76,SSW,197,0.0,0.0,95,0.00,,,0.05,VWS V14.01,2013-05-29 04:04:00,
2013-05-28 23:09:00,57.0,55.6,29.77,South,185,0.0,0.0,95,0.00,,,0.05,VWS V14.01,2013-05-29 04:09:00,
2013-05-28 23:14:00,57.0,55.6,29.77,South,185,0.0,0.0,95,0.00,,,0.05,VWS V14.01,2013-05-29 04:14:00,
2013-05-28 23:19:00,57.0,55.6,29.78,South,185,0.0,0.0,95,0.00,,,0.05,VWS V14.01,2013-05-29 04:19:00,
2013-05-28 23:24:00,57.0,55.6,29.78,South,185,0.0,0.0,95,0.00,,,0.05,VWS V14.01,2013-05-29 04:24:00,
2013-05-28 23:29:00,57.1,55.4,29.78,WSW,250,0.0,1.0,94,0.00,,,0.05,VWS V14.01,2013-05-29 04:29:00,
2013-05-28 23:35:00,57.0,55.3,29.78,WSW,256,0.0,0.0,94,0.00,,,0.05,VWS V14.01,2013-05-29 04:35:00,
2013-05-28 23:40:00,57.1,55.4,29.77,WSW,256,0.0,0.0,94,0.00,,,0.05,VWS V14.01,2013-05-29 04:40:00,
2013-05-28 23:45:00,57.0,55.3,29.76,WSW,256,0.0,0.0,94,0.00,,,0.05,VWS V14.01,2013-05-29 04:45:00,
2013-05-28 23:50:00,56.9,55.2,29.76,WSW,256,0.0,0.0,94,0.00,,,0.05,VWS V14.01,2013-05-29 04:50:00,
2013-05-28 23:55:00,56.9,55.2,29.76,WSW,257,0.0,0.0,94,0.00,,,0.05,VWS V14.01,2013-05-29 04:55:00,